sat.trackr.live / text

‹ back to catalog

STARLINK-4196

NORAD 52859 · 2022-062AF

PAYLOAD ACTIVE UNKNOWN

§ Identity

Operator
Country
US
Launch date
2022-06-17
Launch site
AFETR
Launch vehicle
Mass (kg)
RCS (m²)

Purposes: comms

External: N2YO · Heavens-Above · Gunter

§ Orbital elements

Epoch: 2026-05-25T02:50:35.348352Z

Period
95.44 min
Inclination
53.2138°
Eccentricity
0.0001312
Mean motion
15.08840070 rev/d
Perigee alt
538.8 km
Apogee alt
540.7 km
Semi-major
6,917.9 km
B*
3.6358e-5
RAAN
41.0152°
Arg perigee
87.5657°
Mean anomaly
272.5485°
Rev number
21,746

§ Raw data

STARLINK-41961 52859U 22062AF  26145.11846468  .00000291  00000+0  36358-4 0  99972 52859  53.2138  41.0152 0001312  87.5657 272.5485 15.08840070217467

JSON: /api/v1/satellites/52859 · /tle

For live sub-satellite position, see the globe view (requires WebGL).

§ Visibility from observer

Set your observer location to see the next 7 days of passes ≥ 10°. The values pass through the URL so the page stays shareable.

No JS? Fill the form by hand. The geolocation button needs JavaScript.